Latest Weather Observations for St George

IDQ60801

Issued at 11:05 am EST Saturday 25 October 2014 (issued every 30 minutes, with the page automatically refreshed every 10 minutes)

About weather observations | Map of weather stations | Latest weather observations for QLD | Other Formats
Station Details ID: 043109 Name: ST GEORGE AIRPORT Lat: -28.05 Lon: 148.59 Height: 198.5 m
Data from the previous 72 hours. | See also: Recent months at St George
Date/Time
EST
Temp
°C
App
Temp
°C
Dew
Point
Rel
Hum
%
Delta-T
°C
Wind Press
QNH
hPa
Press
MSL
hPa
Rain
since 9 am
mm
Dir
 
Spd
km/h
Gust
km/h
Spd
kts
Gust
kts
25/11:00am 35.7 31.7 3.0 13 17.1 SSW 13 19 7 10 1016.8 - 0.0
25/10:30am 35.9 31.0 4.2 14 16.9 W 19 32 10 17 1017.3 - 0.0
25/10:00am 34.5 30.0 5.9 17 15.6 W 19 28 10 15 1017.7 - 0.0
25/09:30am 33.2 28.2 6.5 19 14.6 WNW 22 30 12 16 1017.9 - 0.0
25/09:00am 31.8 26.9 6.8 21 13.6 NW 22 32 12 17 1018.0 1017.3 0.0
25/08:30am 30.2 24.5 6.8 23 12.7 NW 26 33 14 18 1018.0 - 0.0
25/08:00am 28.2 22.8 6.3 25 11.6 NNW 24 35 13 19 1018.1 - 0.0
25/07:30am 26.7 22.3 7.2 29 10.4 NNW 20 26 11 14 1017.9 - 0.0
25/07:00am 24.8 20.6 7.4 33 9.2 N 19 30 10 16 1017.6 - 0.0
25/06:30am 23.9 19.4 7.1 34 8.8 N 20 28 11 15 1017.3 - 0.0
25/06:00am 22.7 18.4 6.9 36 8.2 N 19 24 10 13 1017.2 1016.4 0.0
25/05:30am 22.9 18.2 6.2 34 8.6 N 20 26 11 14 1016.6 - 0.0
25/05:00am 23.0 18.6 6.7 35 8.5 N 19 22 10 12 1016.2 - 0.0
25/04:30am 23.5 19.8 6.3 33 8.9 N 15 20 8 11 1016.1 - 0.0
25/04:00am 23.3 20.0 6.6 34 8.7 N 13 17 7 9 1016.1 - 0.0
25/03:30am 23.7 20.4 6.5 33 8.9 N 13 19 7 10 1015.8 - 0.0
25/03:00am 24.2 20.5 6.5 32 9.2 N 15 19 8 10 1015.5 1014.8 0.0
25/02:30am 24.3 21.7 6.1 31 9.4 N 9 15 5 8 1015.5 - 0.0
25/02:00am 25.1 21.9 5.3 28 10.1 N 11 13 6 7 1015.5 - 0.0
25/01:30am 25.7 22.9 5.3 27 10.5 N 9 13 5 7 1015.7 - 0.0
25/01:00am 26.2 23.1 5.7 27 10.6 N 11 13 6 7 1016.1 - 0.0
25/12:30am 27.3 23.8 5.6 25 11.3 N 13 17 7 9 1016.5 - 0.0
25/12:00am 28.3 25.9 5.2 23 12.0 W 7 11 4 6 1017.1 1016.3 0.0
 
Date/Time
EST
Temp
°C
App
Temp
°C
Dew
Point
Rel
Hum
%
Delta-T
°C
Wind Press
QNH
hPa
Press
MSL
hPa
Rain
since 9 am
mm
Dir
 
Spd
km/h
Gust
km/h
Spd
kts
Gust
kts
24/11:30pm 28.2 22.7 5.7 24 11.8 SW 24 33 13 18 1017.9 - 0.0
24/11:00pm 28.0 24.7 6.2 25 11.5 N 13 17 7 9 1016.6 - 0.0
24/10:30pm 28.0 24.2 5.6 24 11.7 N 15 19 8 10 1016.2 - 0.0
24/10:00pm 28.8 24.6 5.6 23 12.2 N 17 20 9 11 1016.1 - 0.0
24/09:30pm 29.4 25.5 5.5 22 12.6 N 15 19 8 10 1016.1 - 0.0
24/09:00pm 30.2 25.8 4.8 20 13.3 N 17 20 9 11 1016.0 1015.3 0.0
24/08:30pm 29.9 26.2 4.5 20 13.2 N 13 15 7 8 1015.9 - 0.0
24/08:00pm 28.9 26.3 6.3 24 12.0 NNE 9 11 5 6 1015.8 - 0.0
24/07:30pm 29.3 26.6 5.4 22 12.6 NNE 9 11 5 6 1015.5 - 0.0
24/07:00pm 29.7 27.3 5.1 21 12.9 NNE 7 9 4 5 1015.2 - 0.0
24/06:30pm 31.9 28.8 3.8 17 14.6 NNE 9 13 5 7 1015.0 - 0.0
24/06:00pm 33.6 30.5 3.4 15 15.8 NNE 9 11 5 6 1014.8 1014.1 0.0
24/05:30pm 34.9 31.2 2.4 13 16.8 NNW 11 15 6 8 1014.7 - 0.0
24/05:00pm 35.7 32.5 3.0 13 17.2 N 9 11 5 6 1014.3 - 0.0
24/04:30pm 35.8 31.3 2.0 12 17.5 N 15 22 8 12 1014.3 - 0.0
24/04:00pm 35.9 33.1 2.1 12 17.5 SSE 6 11 3 6 1014.3 - 0.0
24/03:30pm 35.4 31.4 2.8 13 17.0 N 13 20 7 11 1014.4 - 0.0
24/03:00pm 36.7 33.4 2.7 12 17.8 NNE 9 20 5 11 1014.6 1013.9 0.0
24/02:30pm 36.8 33.9 2.8 12 17.9 N 7 17 4 9 1015.1 - 0.0
24/02:00pm 36.2 33.4 3.4 13 17.4 SW 7 13 4 7 1015.6 - 0.0
24/01:30pm 35.6 32.0 3.0 13 17.1 SE 11 19 6 10 1016.0 - 0.0
24/01:00pm 35.7 32.5 3.0 13 17.2 S 9 20 5 11 1016.7 - 0.0
24/12:30pm 35.3 32.2 3.8 14 16.7 SSE 9 19 5 10 1017.2 - 0.0
24/12:00pm 34.7 30.4 3.3 14 16.4 N 15 24 8 13 1017.7 1017.0 0.0
24/11:30am 34.1 30.9 2.8 14 16.2 WSW 9 22 5 12 1018.2 - 0.0
24/11:00am 33.7 30.0 2.5 14 16.1 NNW 11 20 6 11 1018.6 - 0.0
24/10:30am 32.8 27.8 3.7 16 15.2 NW 19 24 10 13 1019.0 - 0.0
24/10:00am 32.3 26.8 4.2 17 14.7 WNW 22 26 12 14 1019.3 - 0.0
24/09:30am 30.7 26.2 4.4 19 13.7 NNW 17 24 9 13 1019.5 - 0.0
24/09:00am 29.5 25.1 4.9 21 12.8 NNW 17 26 9 14 1019.8 1019.1 0.0
24/08:30am 28.3 24.1 5.8 24 11.9 NNW 17 24 9 13 1019.6 - 0.0
24/08:00am 26.6 22.6 6.6 28 10.6 N 17 24 9 13 1019.5 - 0.0
24/07:30am 24.5 19.6 5.3 29 9.8 N 20 28 11 15 1019.4 - 0.0
24/07:00am 23.3 19.2 6.1 33 8.8 N 17 24 9 13 1019.2 - 0.0
24/06:30am 21.8 17.8 6.5 37 7.8 NNE 17 24 9 13 1019.0 - 0.0
24/06:00am 20.7 17.2 7.0 41 7.0 N 15 22 8 12 1018.8 1018.1 0.0
24/05:30am 19.7 17.0 7.4 45 6.3 N 11 17 6 9 1018.4 - 0.0
24/05:00am 18.9 16.6 7.4 47 5.9 NNE 9 13 5 7 1018.0 - 0.0
24/04:30am 19.2 16.6 7.6 47 6.0 NNE 11 13 6 7 1017.6 - 0.0
24/04:00am 19.0 16.6 7.1 46 6.1 NNE 9 11 5 6 1017.6 - 0.0
24/03:30am 19.5 17.2 7.3 45 6.3 N 9 11 5 6 1017.4 - 0.0
24/03:00am 19.6 17.7 7.4 45 6.3 NNE 7 9 4 5 1017.5 1016.8 0.0
24/02:30am 19.8 17.7 6.5 42 6.7 NNE 7 7 4 4 1017.5 - 0.0
24/02:00am 20.2 18.0 6.2 40 7.1 NNE 7 9 4 5 1017.5 - 0.0
24/01:30am 20.9 18.7 6.1 38 7.5 N 7 9 4 5 1017.5 - 0.0
24/01:00am 21.0 18.5 6.5 39 7.4 NNE 9 11 5 6 1017.8 - 0.0
24/12:30am 22.2 19.3 6.4 36 8.1 N 11 13 6 7 1018.0 - 0.0
24/12:00am 21.5 19.0 6.6 38 7.6 NNE 9 11 5 6 1018.2 1017.5 0.0
 
Date/Time
EST
Temp
°C
App
Temp
°C
Dew
Point
Rel
Hum
%
Delta-T
°C
Wind Press
QNH
hPa
Press
MSL
hPa
Rain
since 9 am
mm
Dir
 
Spd
km/h
Gust
km/h
Spd
kts
Gust
kts
23/11:30pm 21.9 19.9 7.3 39 7.6 N 7 9 4 5 1018.2 - 0.0
23/11:00pm 22.2 19.8 6.8 37 8.0 NNE 9 13 5 7 1018.2 - 0.0
23/10:30pm 22.2 20.3 6.8 37 8.0 N 6 9 3 5 1018.2 - 0.0
23/10:00pm 23.1 20.6 4.6 30 9.2 NNE 7 9 4 5 1018.1 - 0.0
23/09:30pm 24.6 21.9 5.4 29 9.8 NNE 9 11 5 6 1018.0 - 0.0
23/09:00pm 24.5 21.7 5.3 29 9.8 NE 9 11 5 6 1017.9 1017.2 0.0
23/08:30pm 24.8 22.5 5.6 29 9.9 NE 7 9 4 5 1017.6 - 0.0
23/08:00pm 25.7 23.3 5.3 27 10.5 NE 7 9 4 5 1017.2 - 0.0
23/07:30pm 26.1 23.7 5.1 26 10.8 NE 7 9 4 5 1017.0 - 0.0
23/07:00pm 27.3 24.7 4.4 23 11.7 NE 7 9 4 5 1016.7 - 0.0
23/06:30pm 29.6 26.6 4.3 20 13.1 ENE 9 13 5 7 1016.3 - 0.0
23/06:00pm 31.1 27.7 4.0 18 14.1 E 11 15 6 8 1016.0 1015.3 0.0
23/05:30pm 31.9 29.2 3.8 17 14.6 E 7 13 4 7 1015.9 - 0.0
23/05:00pm 32.1 28.3 4.0 17 14.7 SE 13 19 7 10 1015.7 - 0.0
23/04:30pm 32.7 29.8 4.5 17 14.9 SSE 9 15 5 8 1015.5 - 0.0
23/04:00pm 32.8 27.8 3.7 16 15.2 SSE 19 24 10 13 1015.5 - 0.0
23/03:30pm 32.8 30.3 4.6 17 14.9 NW 7 11 4 6 1015.6 - 0.0
23/03:00pm 33.1 30.2 4.8 17 15.1 NW 9 13 5 7 1015.9 1015.2 0.0
23/02:30pm 32.9 30.2 5.5 18 14.7 SW 9 17 5 9 1016.3 - 0.0
23/02:00pm 31.8 29.6 5.3 19 14.1 SE 6 11 3 6 1016.9 - 0.0
23/01:30pm 31.6 28.7 6.6 21 13.6 NNW 11 17 6 9 1017.3 - 0.0
23/01:00pm 31.3 28.8 6.4 21 13.5 NNE 9 17 5 9 1017.9 - 0.0
23/12:30pm 30.5 28.5 7.0 23 12.8 N 7 17 4 9 1018.6 - 0.0
23/12:00pm 29.6 26.9 7.5 25 12.0 NNW 11 17 6 9 1019.1 1018.4 0.0
23/11:30am 28.3 25.8 8.1 28 11.1 N 11 19 6 10 1019.5 - 0.0
23/11:00am 27.2 24.3 8.1 30 10.4 N 13 20 7 11 1019.9 - 0.0
23/10:30am 27.2 24.5 9.1 32 10.0 N 13 19 7 10 1020.3 - 0.0
23/10:00am 25.7 22.4 8.2 33 9.5 N 15 20 8 11 1020.6 - 0.0
23/09:30am 25.3 21.7 8.3 34 9.2 N 17 24 9 13 1020.7 - 0.0
23/09:00am 24.2 20.0 8.2 36 8.6 N 20 28 11 15 1020.8 1020.1 0.0
23/08:30am 24.1 20.2 8.5 37 8.4 N 19 26 10 14 1021.0 - 0.0
23/08:00am 22.7 18.6 8.0 39 7.8 N 19 26 10 14 1020.9 - 0.0
23/07:30am 22.0 17.7 7.8 40 7.5 NNE 20 28 11 15 1020.6 - 0.0
23/07:00am 21.1 16.8 7.7 42 7.0 NNE 20 30 11 16 1020.4 - 0.0
23/06:30am 20.7 16.9 7.7 43 6.8 NNE 17 26 9 14 1020.2 - 0.0
23/06:00am 19.5 16.5 7.6 46 6.1 NNE 13 19 7 10 1020.2 1019.5 0.0
23/05:30am 19.4 17.2 7.8 47 6.0 ENE 9 15 5 8 1020.2 - 0.0
23/05:00am 19.3 15.3 8.3 49 5.7 SE 19 28 10 15 1019.8 - 0.0
23/04:30am 20.1 18.0 8.1 46 6.3 N 9 11 5 6 1019.3 - 0.0
23/04:00am 20.8 18.3 8.4 45 6.6 N 11 17 6 9 1019.2 - 0.0
23/03:30am 20.6 18.7 9.2 48 6.1 NNW 9 13 5 7 1019.2 - 0.0
23/03:00am 19.7 18.3 9.6 52 5.4 NW 7 9 4 5 1019.0 1018.3 0.0
23/02:30am 19.0 16.9 8.1 49 5.7 WNW 9 13 5 7 1019.0 - 0.0
23/02:00am 19.5 17.8 8.5 49 5.8 NNE 7 11 4 6 1018.8 - 0.0
23/01:30am 20.0 18.0 8.7 48 6.0 NNE 9 9 5 5 1019.0 - 0.0
23/01:00am 20.5 18.5 8.8 47 6.2 NNE 9 11 5 6 1019.2 - 0.0
23/12:30am 21.2 19.6 8.8 45 6.6 N 7 9 4 5 1019.6 - 0.0
23/12:00am 21.3 19.3 8.6 44 6.7 NNE 9 11 5 6 1019.5 1018.8 0.0
 
Date/Time
EST
Temp
°C
App
Temp
°C
Dew
Point
Rel
Hum
%
Delta-T
°C
Wind Press
QNH
hPa
Press
MSL
hPa
Rain
since 9 am
mm
Dir
 
Spd
km/h
Gust
km/h
Spd
kts
Gust
kts
22/11:30pm 21.7 19.8 8.9 44 6.9 NNE 9 11 5 6 1019.7 - 0.0
22/11:00pm 21.8 20.1 8.3 42 7.2 NNE 7 9 4 5 1019.8 - 0.0
22/10:30pm 22.2 20.1 8.3 41 7.4 NNE 9 11 5 6 1019.9 - 0.0
22/10:00pm 22.4 20.6 7.8 39 7.7 NE 7 9 4 5 1019.9 - 0.0
22/09:30pm 24.0 21.8 8.0 36 8.5 NE 9 13 5 7 1020.1 - 0.0
22/09:00pm 24.1 22.2 7.7 35 8.7 NE 7 11 4 6 1020.0 1019.3 0.0
22/08:30pm 24.6 22.6 7.3 33 9.2 NE 7 11 4 6 1019.7 - 0.0
22/08:00pm 26.2 24.0 7.7 31 10.0 ENE 9 13 5 7 1019.3 - 0.0
22/07:30pm 26.3 24.0 7.4 30 10.1 E 9 11 5 6 1019.3 - 0.0
22/07:00pm 26.9 25.2 7.4 29 10.5 E 6 9 3 5 1019.1 - 0.0
22/06:30pm 28.1 26.0 6.8 26 11.4 E 7 9 4 5 1018.7 - 0.0
22/06:00pm 29.4 27.4 7.3 25 12.0 E 7 13 4 7 1018.4 1017.7 0.0
22/05:30pm 30.3 28.4 7.5 24 12.5 ESE 7 17 4 9 1018.3 - 0.0
22/05:00pm 30.7 27.6 7.2 23 12.8 E 13 20 7 11 1018.2 - 0.0
22/04:30pm 30.7 27.6 7.2 23 12.8 ESE 13 20 7 11 1018.3 - 0.0
22/04:00pm 30.4 27.9 8.2 25 12.3 SW 11 17 6 9 1018.5 - 0.0
22/03:30pm 31.3 28.6 8.9 25 12.6 S 13 17 7 9 1018.6 - 0.0
22/03:00pm 30.9 29.4 9.2 26 12.2 WNW 7 13 4 7 1018.9 1018.2 0.0
22/02:30pm 30.5 28.7 9.4 27 11.9 W 9 19 5 10 1019.4 - 0.0
22/02:00pm 30.0 28.0 10.0 29 11.4 NNE 11 20 6 11 1019.9 - 0.0
22/01:30pm 30.1 28.6 10.6 30 11.2 ENE 9 19 5 10 1020.4 - 0.0
22/01:00pm 28.6 25.7 9.8 31 10.6 NW 15 20 8 11 1020.9 - 0.0
22/12:30pm 28.1 25.7 9.9 32 10.3 NNE 13 26 7 14 1021.5 - 0.0
22/12:00pm 28.2 25.8 9.9 32 10.3 N 13 20 7 11 1022.1 1021.4 0.0
22/11:30am 26.4 23.5 9.7 35 9.3 NNW 15 24 8 13 1022.7 - 0.0

Other Formats:

Comma delimited format used in spreadsheet applications
http://www.bom.gov.au/fwo/IDQ60801/IDQ60801.94517.axf

JavaScript Object Notation format (JSON) in row-major order
http://www.bom.gov.au/fwo/IDQ60801/IDQ60801.94517.json